This is the latest recevied weather packets stored in our database for station/object N0FDH. If no packets are shown the sender has not sent any weather packets the latest 1 day(s).
| Time | Temp. | Humidity | Pressure | Rain* | Wind** | Luminosity | Snow |
|---|---|---|---|---|---|---|---|
| 1778031672 | 6.11° C | 55% | 1010.9 hPa | 0 mm | - | 0 W/m² | - |
| 1778031371 | 6.11° C | 53% | 1010.8 hPa | 0 mm | - | 0 W/m² | - |
| 1778030763 | 6.11° C | 53% | 1010.5 hPa | 0 mm | - | 1 W/m² | - |
| 1778029854 | 6.11° C | 50% | 1010.4 hPa | 0 mm | - | 3 W/m² | - |
| 1778029554 | 6.67° C | 52% | 1010.4 hPa | 0 mm | - | 5 W/m² | - |
| 1778029250 | 6.67° C | 52% | 1010.3 hPa | 0 mm | - | 7 W/m² | - |
| 1778028947 | 6.67° C | 53% | 1010.2 hPa | 0 mm | - | 11 W/m² | - |
| 1778028643 | 6.67° C | 53% | 1010.2 hPa | 0 mm | - | 13 W/m² | - |
| 1778028341 | 6.67° C | 50% | 1010.3 hPa | 0 mm | - | 17 W/m² | - |
| 1778028037 | 6.67° C | 51% | 1010.1 hPa | 0 mm | - | 15 W/m² | - |
| 1778027430 | 7.22° C | 48% | 1010.2 hPa | 0 mm | - | 25 W/m² | - |
| 1778027126 | 7.22° C | 51% | 1010 hPa | 0 mm | - | 34 W/m² | - |
| 1778026518 | 7.22° C | 50% | 1009.9 hPa | 0 mm | - | 35 W/m² | - |
| 1778021370 | 7.78° C | 46% | 1009.5 hPa | 0 mm | - | 121 W/m² | - |
| 1778019854 | 8.33° C | 48% | 1009.6 hPa | 0 mm | - | 167 W/m² | - |
| 1778018641 | 8.33° C | 45% | 1009.5 hPa | 0 mm | - | 399 W/m² | - |
| 1778018037 | 7.78° C | 46% | 1009.6 hPa | 0 mm | - | 141 W/m² | - |
| 1778017735 | 7.78° C | 49% | 1009.6 hPa | 0 mm | - | 156 W/m² | - |
| 1778017432 | 7.78° C | 49% | 1009.6 hPa | 0 mm | - | 115 W/m² | - |
| 1778016827 | 8.33° C | 45% | 1009.5 hPa | 0 mm | - | 184 W/m² | - |
| 1778016220 | 7.78° C | 46% | 1009.5 hPa | 0 mm | - | 125 W/m² | - |
| 1778015916 | 7.78° C | 48% | 1009.5 hPa | 0 mm | - | 143 W/m² | - |
| 1778013797 | 7.22° C | 49% | 1009.7 hPa | 0 mm | - | 166 W/m² | - |
| 1778013494 | 7.22° C | 47% | 1009.6 hPa | 0 mm | - | 128 W/m² | - |
| 1778011977 | 7.22° C | 48% | 1009.7 hPa | 0 mm | - | 197 W/m² | - |
* Rain latest hour (hover to see other rain measurements)
** Current wind speed in m/s (hover to see current wind gust speed)